User: anonymous   Login
Location: Unspecified
(0.0000°N, 0.0000°E)
Time: 00:20:55
(UTC+00:00)
Language:

DSP F15 - Orbit

View from above orbital plane
View from above orbital plane
View from above satellite
View from above satellite

Ground track
Ground track

The orbit data is extracted from the following two-line orbital elements,

1 20929U 90095A   17047.88657507 0.00000000  00000-0  00000-0 0    03
2 20929  15.3282  12.4070 0006157 336.1636  23.8199  0.98390720    06
Epoch (UTC): 16 February 2017 21:16:40
Eccentricity: 0.0006157
inclination: 15.3282°
perigee height: 36295 km
apogee height: 36348 km
right ascension of ascending node: 12.4070°
argument of perigee: 336.1636°
revolutions per day: 0.98390720
mean anomaly at epoch: 23.8199°
orbit number at epoch: 0

The dashed part of the orbit path shows where the satellite is in the earth's shadow,  

DLR